Opa-locka, FL

2:13 PM EST on February 25, 2017 (GMT -0500)
Opa Locka

Weather History for KOPF - February, 2014

Change the Weather History Date:

Wednesday, February 26, 2014

  Actual Average Record
Temperature  
Mean Temperature 75 °F -  
Max Temperature 84 °F 76 °F 87 °F (1961)
Min Temperature 66 °F 58 °F 38 °F (1967)
Cooling Degree Days 10    
Growing Degree Days 25 (Base 50)    
Moisture  
Dew Point 65 °F    
Average Humidity 75    
Maximum Humidity 100    
Minimum Humidity 41    
Precipitation  
Precipitation 0.00 in - - ()
Sea Level Pressure  
Sea Level Pressure 29.88 in    
Wind  
Wind Speed 9 mph (WSW)    
Max Wind Speed 21 mph    
Max Gust Speed 26 mph    
Visibility 10 miles    
Events      
Averages and records for this station are not official NWS values.
T = Trace of Precipitation, MM = Missing Value Source: NWS Daily Summary

Daily Weather History Graph

Daily Weather History Graph

Search for Another Location

Airport or City:

Trip Planner

Search our weather history database for the weather conditions in past years. The results will help you decide how hot, cold, wet, or windy it might be!

Date:

Astronomy

Feb. 26, 2014 Rise Set
Actual Time 6:47 AM EST 6:21 PM EST
Civil Twilight 6:24 AM EST 6:44 PM EST
Nautical Twilight 5:57 AM EST 7:11 PM EST
Astronomical Twilight 5:30 AM EST 7:37 PM EST
Moon 4:19 AM EST (2/26) 3:44 PM EST (2/26)
Length of Visible Light 12h 20m
Length of Day
11h 33m
Waning Crescent, 10% of the Moon is Illuminated
Feb 26
Waning Crescent
Mar 1
New
Mar 8
First Quarter
Mar 16
Full
Mar 23
Last Quarter

Hourly Weather History & Observations

Time (EST) Temp. Heat Index Dew Point Humidity Pressure Visibility Wind Dir Wind Speed Gust Speed Precip Events Conditions
12:53 AM 70.0 °F - 66.9 °F 90% 29.97 in 10.0 mi WNW 9.2 mph - N/A   Clear
1:53 AM 69.1 °F - 66.9 °F 93% 29.96 in 10.0 mi WNW 6.9 mph - N/A   Clear
2:53 AM 68.0 °F - 66.0 °F 93% 29.93 in 10.0 mi NW 5.8 mph - N/A   Clear
3:53 AM 66.0 °F - 66.0 °F 100% 29.92 in 10.0 mi West 3.5 mph - N/A   Clear
4:53 AM 66.0 °F - 66.0 °F 100% 29.91 in 10.0 mi West 3.5 mph - N/A   Clear
5:53 AM 66.0 °F - 64.9 °F 96% 29.92 in 10.0 mi NW 5.8 mph - N/A   Clear
6:53 AM 66.0 °F - 64.9 °F 96% 29.92 in 5.0 mi North 4.6 mph - N/A   Clear
7:53 AM 69.1 °F - 69.1 °F 100% 29.93 in 5.0 mi Calm Calm - N/A   Clear
8:53 AM 73.9 °F - 66.9 °F 79% 29.93 in 10.0 mi Calm Calm - N/A   Clear
9:53 AM 79.0 °F - 62.1 °F 56% 29.94 in 10.0 mi SW 6.9 mph - N/A   Clear
10:53 AM 81.0 °F 81.6 °F 60.1 °F 49% 29.92 in 10.0 mi SW 9.2 mph - N/A   Clear
11:53 AM 84.0 °F 84.0 °F 60.1 °F 44% 29.90 in 10.0 mi SSW 10.4 mph 20.7 mph N/A   Clear
12:53 PM 84.9 °F 85.0 °F 61.0 °F 44% 29.86 in 10.0 mi WSW 17.3 mph 21.9 mph N/A   Partly Cloudy
1:53 PM 84.9 °F 84.4 °F 59.0 °F 41% 29.83 in 10.0 mi SW 20.7 mph - N/A   Clear
2:53 PM 84.0 °F 84.4 °F 61.0 °F 46% 29.81 in 10.0 mi WSW 19.6 mph 26.5 mph N/A   Partly Cloudy
3:53 PM 82.0 °F 83.1 °F 63.0 °F 52% 29.79 in 10.0 mi WSW 17.3 mph 23.0 mph N/A   Partly Cloudy
4:53 PM 82.0 °F 83.1 °F 63.0 °F 52% 29.80 in 10.0 mi West 17.3 mph 25.3 mph N/A   Clear
5:53 PM 80.1 °F 81.7 °F 64.0 °F 58% 29.81 in 10.0 mi West 13.8 mph 24.2 mph N/A   Clear
6:53 PM 75.9 °F - 66.0 °F 71% 29.82 in 10.0 mi WSW 15.0 mph - N/A   Clear
7:53 PM 75.0 °F - 69.1 °F 82% 29.83 in 10.0 mi WSW 11.5 mph - N/A   Clear
8:53 PM 73.9 °F - 70.0 °F 87% 29.86 in 10.0 mi West 6.9 mph - N/A   Clear
9:53 PM 73.0 °F - 71.1 °F 93% 29.86 in 10.0 mi WSW 8.1 mph - N/A   Clear
10:53 PM 73.0 °F - 71.1 °F 93% 29.86 in 10.0 mi SW 8.1 mph - N/A   Clear
11:53 PM 73.0 °F - 72.0 °F 96% 29.84 in 10.0 mi SW 8.1 mph - N/A   Clear